| time (UTC) | temp F | wind direction | speed MPH | gust MPH | rain 1hr in | rain 24hr in | rain mn in | humidity % | barometer mb |
| 20260506174511 | 69 | 221 | 3.0 | 9.0 | 0.00 | 0.00 | 0.00 | 58 | 1018.1 |
| 20260506173005 | 68 | 303 | 2.0 | 5.0 | 0.00 | 0.00 | 0.00 | 60 | 1018.3 |
| 20260506171600 | 67 | 260 | 2.0 | 7.0 | 0.00 | 0.00 | 0.00 | 62 | 1018.4 |
| 20260506170113 | 65 | 326 | 2.0 | 6.0 | 0.00 | 0.00 | 0.00 | 62 | 1018.4 |
| 20260506164553 | 64 | 261 | 2.0 | 6.0 | 0.00 | 0.00 | 0.00 | 63 | 1018.4 |
| 20260506163101 | 64 | 237 | 2.0 | 6.0 | 0.00 | 0.00 | 0.00 | 62 | 1018.5 |
| 20260506161545 | 64 | 184 | 1.0 | 6.0 | 0.00 | 0.00 | 0.00 | 66 | 1018.5 |
| 20260506160042 | 62 | 1 | 1.0 | 6.0 | 0.00 | 0.00 | 0.00 | 68 | 1018.5 |
| 20260506154535 | 61 | 236 | 2.0 | 5.0 | 0.00 | 0.01 | 0.00 | 69 | 1018.5 |
| 20260506153031 | 60 | 101 | 0.0 | 4.0 | 0.00 | 0.01 | 0.00 | 71 | 1018.6 |
| 20260506151526 | 59 | 16 | 0.0 | 4.0 | 0.00 | 0.01 | 0.00 | 72 | 1018.7 |
| 20260506150022 | 58 | 330 | 0.0 | 2.0 | 0.00 | 0.01 | 0.00 | 76 | 1018.8 |
| 20260506144518 | 56 | 242 | 0.0 | 2.0 | 0.00 | 0.08 | 0.00 | 84 | 1018.7 |
| 20260506143025 | 54 | 126 | 1.0 | 4.0 | 0.00 | 0.08 | 0.00 | 87 | 1018.7 |
| 20260506141510 | 53 | 22 | 0.0 | 2.0 | 0.00 | 0.08 | 0.00 | 88 | 1018.6 |
| 20260506140005 | 51 | 41 | 4.0 | 6.0 | 0.00 | 0.12 | 0.00 | 89 | 1018.6 |
| 20260506134600 | 50 | 7 | 0.0 | 2.0 | 0.00 | 0.12 | 0.00 | 89 | 1018.7 |
| 20260506133058 | 50 | 7 | 0.0 | 0.0 | 0.00 | 0.12 | 0.00 | 89 | 1018.5 |
| 20260506131555 | 50 | 7 | 0.0 | 2.0 | 0.00 | 0.12 | 0.00 | 88 | 1018.4 |
| 20260506130059 | 50 | 4 | 0.0 | 0.0 | 0.00 | 0.12 | 0.00 | 88 | 1018.3 |
| 20260506124550 | 50 | 4 | 0.0 | 0.0 | 0.00 | 0.13 | 0.00 | 88 | 1018.2 |
| 20260506123050 | 50 | 4 | 0.0 | 0.0 | 0.00 | 0.13 | 0.00 | 88 | 1018.1 |
| 20260506121552 | 49 | 4 | 1.0 | 4.0 | 0.00 | 0.13 | 0.00 | 88 | 1017.8 |
| 20260506120048 | 49 | 20 | 1.0 | 3.0 | 0.00 | 0.13 | 0.00 | 88 | 1017.8 |
| 20260506114548 | 49 | 12 | 1.0 | 5.0 | 0.00 | 0.13 | 0.00 | 88 | 1017.8 |
| 20260506113045 | 49 | 30 | 0.0 | 0.0 | 0.00 | 0.13 | 0.00 | 87 | 1017.7 |
| 20260506111543 | 49 | 30 | 1.0 | 2.0 | 0.00 | 0.13 | 0.00 | 87 | 1017.7 |
| 20260506110042 | 49 | 30 | 0.0 | 0.0 | 0.00 | 0.13 | 0.00 | 86 | 1017.8 |
| 20260506104541 | 50 | 30 | 0.0 | 2.0 | 0.00 | 0.15 | 0.00 | 86 | 1017.8 |
| 20260506103047 | 50 | 30 | 0.0 | 2.0 | 0.00 | 0.15 | 0.00 | 86 | 1017.6 |
| 20260506101539 | 50 | 30 | 1.0 | 2.0 | 0.00 | 0.15 | 0.00 | 86 | 1017.6 |
| 20260506100037 | 50 | 30 | 0.0 | 4.0 | 0.00 | 0.15 | 0.00 | 86 | 1017.4 |
| 20260506094536 | 50 | 32 | 1.0 | 4.0 | 0.00 | 0.19 | 0.00 | 85 | 1017.4 |
| 20260506093034 | 51 | 13 | 0.0 | 2.0 | 0.00 | 0.19 | 0.00 | 85 | 1017.3 |
| 20260506091534 | 51 | 13 | 0.0 | 2.0 | 0.00 | 0.19 | 0.00 | 84 | 1017.4 |
| 20260506090042 | 51 | 22 | 0.0 | 0.0 | 0.00 | 0.19 | 0.00 | 84 | 1017.5 |
| 20260506084527 | 52 | 22 | 0.0 | 1.0 | 0.00 | 0.23 | 0.00 | 84 | 1017.7 |
| 20260506083026 | 52 | 9 | 1.0 | 4.0 | 0.00 | 0.23 | 0.00 | 84 | 1017.8 |
| 20260506081523 | 52 | 18 | 0.0 | 2.0 | 0.00 | 0.23 | 0.00 | 83 | 1017.9 |
| 20260506073018 | 53 | 27 | 0.0 | 4.0 | 0.00 | 0.23 | 0.00 | 81 | 1018.1 |
| 20260506071516 | 54 | 66 | 0.0 | 1.0 | 0.00 | 0.23 | 0.00 | 80 | 1018.2 |
| 20260506061520 | 55 | 202 | 0.0 | 0.0 | 0.00 | 0.23 | 0.23 | 79 | 1017.8 |
| 20260506050124 | 56 | 202 | 0.0 | 0.0 | 0.00 | 0.23 | 0.23 | 76 | 1017.9 |
| 20260506044508 | 56 | 202 | 0.0 | 0.0 | 0.00 | 0.23 | 0.23 | 73 | 1017.5 |
| 20260506043007 | 56 | 202 | 0.0 | 0.0 | 0.00 | 0.23 | 0.23 | 71 | 1017.4 |
| 20260506041503 | 57 | 202 | 0.0 | 0.0 | 0.00 | 0.23 | 0.23 | 70 | 1017.2 |
| 20260506040001 | 58 | 202 | 0.0 | 0.0 | 0.00 | 0.23 | 0.23 | 70 | 1017.1 |
| 20260506034606 | 58 | 202 | 0.0 | 0.0 | 0.00 | 0.23 | 0.23 | 70 | 1016.9 |
| 20260506033059 | 58 | 220 | 0.0 | 4.0 | 0.00 | 0.23 | 0.23 | 69 | 1016.7 |
| 20260506031557 | 59 | 181 | 1.0 | 6.0 | 0.00 | 0.23 | 0.23 | 68 | 1016.5 |
| 20260506030057 | 59 | 259 | 0.0 | 6.0 | 0.00 | 0.23 | 0.23 | 67 | 1016.2 |
| 20260506024559 | 60 | 235 | 0.0 | 5.0 | 0.00 | 0.23 | 0.23 | 65 | 1015.9 |
| 20260506023053 | 60 | 224 | 2.0 | 6.0 | 0.00 | 0.23 | 0.23 | 64 | 1015.7 |
| 20260506021602 | 61 | 239 | 3.0 | 8.0 | 0.00 | 0.23 | 0.23 | 62 | 1015.4 |
| 20260506020052 | 62 | 195 | 1.0 | 10.0 | 0.00 | 0.23 | 0.23 | 59 | 1015.2 |
| 20260506014551 | 63 | 180 | 3.0 | 10.0 | 0.00 | 0.23 | 0.23 | 59 | 1015.1 |
| 20260506013057 | 63 | 255 | 4.0 | 10.0 | 0.00 | 0.23 | 0.23 | 56 | 1015.0 |
| 20260506011603 | 64 | 195 | 5.0 | 11.0 | 0.00 | 0.23 | 0.23 | 56 | 1014.9 |
| 20260506010050 | 65 | 233 | 3.0 | 12.0 | 0.00 | 0.23 | 0.23 | 55 | 1014.8 |
| 20260506004550 | 66 | 209 | 2.0 | 13.0 | 0.00 | 0.23 | 0.23 | 52 | 1014.7 |
| 20260506003049 | 67 | 238 | 5.0 | 14.0 | 0.00 | 0.23 | 0.23 | 51 | 1014.6 |
| 20260506001551 | 68 | 265 | 5.0 | 12.0 | 0.00 | 0.23 | 0.23 | 50 | 1014.5 |
| 20260506000049 | 69 | 269 | 5.0 | 12.0 | 0.00 | 0.23 | 0.23 | 48 | 1014.5 |
| 20260505234551 | 68 | 178 | 2.0 | 12.0 | 0.00 | 0.23 | 0.23 | 50 | 1014.5 |
| 20260505233046 | 66 | 207 | 4.0 | 11.0 | 0.00 | 0.23 | 0.23 | 53 | 1014.6 |
| 20260505231601 | 66 | 267 | 3.0 | 11.0 | 0.00 | 0.23 | 0.23 | 51 | 1014.6 |
| 20260505230050 | 69 | 235 | 5.0 | 16.0 | 0.00 | 0.23 | 0.23 | 47 | 1014.7 |
| 20260505224544 | 68 | 266 | 3.0 | 8.0 | 0.00 | 0.23 | 0.23 | 49 | 1014.8 |
| 20260505223043 | 69 | 182 | 6.0 | 11.0 | 0.00 | 0.23 | 0.23 | 49 | 1014.8 |
| 20260505221542 | 69 | 201 | 4.0 | 12.0 | 0.00 | 0.23 | 0.23 | 47 | 1014.9 |
| 20260505220042 | 69 | 220 | 4.0 | 14.0 | 0.00 | 0.23 | 0.23 | 52 | 1015.0 |
| 20260505214602 | 67 | 236 | 4.0 | 14.0 | 0.00 | 0.23 | 0.23 | 54 | 1015.1 |
| 20260505213040 | 68 | 226 | 2.0 | 10.0 | 0.00 | 0.23 | 0.23 | 51 | 1015.1 |
| 20260505211539 | 69 | 249 | 4.0 | 11.0 | 0.00 | 0.23 | 0.23 | 53 | 1015.3 |
| 20260505210039 | 68 | 230 | 6.0 | 14.0 | 0.00 | 0.23 | 0.23 | 51 | 1015.4 |
| 20260505204536 | 68 | 180 | 4.0 | 11.0 | 0.00 | 0.23 | 0.23 | 53 | 1015.4 |
| 20260505203034 | 66 | 174 | 4.0 | 10.0 | 0.00 | 0.23 | 0.23 | 55 | 1015.6 |
| 20260505201531 | 66 | 182 | 4.0 | 12.0 | 0.00 | 0.23 | 0.23 | 58 | 1015.5 |
| 20260505200040 | 66 | 222 | 3.0 | 9.0 | 0.00 | 0.23 | 0.23 | 57 | 1015.6 |
| 20260505194527 | 64 | 256 | 4.0 | 10.0 | 0.00 | 0.23 | 0.23 | 60 | 1015.8 |
| 20260505193023 | 62 | 230 | 3.0 | 10.0 | 0.00 | 0.23 | 0.23 | 65 | 1016.0 |
| 20260505191521 | 62 | 278 | 3.0 | 9.0 | 0.00 | 0.23 | 0.23 | 70 | 1016.0 |
| 20260505190026 | 62 | 203 | 3.0 | 8.0 | 0.00 | 0.23 | 0.23 | 71 | 1016.0 |
| 20260505184520 | 61 | 259 | 4.0 | 9.0 | 0.00 | 0.23 | 0.23 | 75 | 1015.9 |
| 20260505183021 | 60 | 149 | 1.0 | 5.0 | 0.00 | 0.23 | 0.23 | 80 | 1015.9 |
| 20260505181512 | 59 | 223 | 0.0 | 2.0 | 0.00 | 0.23 | 0.23 | 86 | 1016.1 |
| 20260505180015 | 57 | 11 | 0.0 | 0.0 | 0.00 | 0.23 | 0.23 | 85 | 1016.0 |